Time,TemperatureF,DewpointF,PressureIn,WindDirection,WindDirectionDegrees,WindSpeedMPH,WindSpeedGustMPH,Humidity,HourlyPrecipIn,Conditions,Clouds,dailyrainin,SoftwareType,DateUTC
2013-06-15 00:00:00,63.1,57.5,29.86,West,263,0.0,0.0,82,0.00,,,0.00,Wunderground v.1.15,2013-06-15 04:00:00,
2013-06-15 00:10:00,63.1,57.5,29.86,West,261,0.0,0.0,82,0.00,,,0.00,Wunderground v.1.15,2013-06-15 04:10:00,
2013-06-15 00:12:00,63.1,58.0,29.86,West,261,2.0,6.0,82,0.00,,,0.00,weatherlink.com 1.10,2013-06-15 04:12:00,
2013-06-15 00:20:00,63.2,57.3,29.86,West,263,0.0,0.0,81,0.00,,,0.00,Wunderground v.1.15,2013-06-15 04:20:00,
2013-06-15 00:26:00,63.2,57.0,29.86,SW,215,0.0,5.0,81,0.00,,,0.00,weatherlink.com 1.10,2013-06-15 04:26:00,
2013-06-15 00:40:00,63.5,57.6,29.86,WNW,285,0.0,1.0,81,0.00,,,0.00,Wunderground v.1.15,2013-06-15 04:40:00,
2013-06-15 00:50:00,63.4,57.1,29.86,WNW,284,0.0,0.0,80,0.00,,,0.00,Wunderground v.1.15,2013-06-15 04:50:00,
2013-06-15 00:57:00,63.5,57.0,29.87,WNW,294,0.0,9.0,80,0.00,,,0.00,weatherlink.com 1.10,2013-06-15 04:57:00,
2013-06-15 01:10:00,63.2,56.9,29.87,WNW,294,0.0,0.0,80,0.00,,,0.00,Wunderground v.1.15,2013-06-15 05:10:00,
2013-06-15 01:20:00,63.2,57.3,29.86,WNW,290,0.0,0.0,81,0.00,,,0.00,Wunderground v.1.15,2013-06-15 05:20:00,
2013-06-15 01:26:00,63.1,57.0,29.87,WSW,254,0.0,4.0,81,0.00,,,0.00,weatherlink.com 1.10,2013-06-15 05:26:00,
2013-06-15 01:40:00,62.9,57.0,29.87,WNW,299,1.0,1.0,81,0.00,,,0.00,Wunderground v.1.15,2013-06-15 05:40:00,
2013-06-15 01:50:00,62.7,56.8,29.87,West,274,1.0,1.0,81,0.00,,,0.00,Wunderground v.1.15,2013-06-15 05:50:00,
2013-06-15 01:56:00,62.8,57.0,29.87,West,264,0.0,5.0,81,0.00,,,0.00,weatherlink.com 1.10,2013-06-15 05:56:00,
2013-06-15 02:10:00,62.7,56.8,29.87,NW,310,1.0,1.0,81,0.00,,,0.00,Wunderground v.1.15,2013-06-15 06:10:00,
2013-06-15 02:20:00,62.7,56.8,29.88,West,264,1.0,1.0,81,0.00,,,0.00,Wunderground v.1.15,2013-06-15 06:20:00,
2013-06-15 02:28:00,62.7,57.0,29.88,WSW,255,1.0,6.0,81,0.00,,,0.00,weatherlink.com 1.10,2013-06-15 06:28:00,
2013-06-15 02:40:00,62.7,56.8,29.88,West,266,1.0,1.0,81,0.00,,,0.00,Wunderground v.1.15,2013-06-15 06:40:00,
2013-06-15 02:50:00,62.7,56.8,29.88,West,281,1.0,1.0,81,0.00,,,0.00,Wunderground v.1.15,2013-06-15 06:50:00,
2013-06-15 02:58:00,62.7,57.0,29.89,West,280,0.0,5.0,81,0.00,,,0.00,weatherlink.com 1.10,2013-06-15 06:58:00,
2013-06-15 03:10:00,62.5,56.2,29.89,NNW,330,0.0,0.0,80,0.00,,,0.00,Wunderground v.1.15,2013-06-15 07:10:00,
2013-06-15 03:20:00,62.5,56.2,29.89,NNW,330,0.0,0.0,80,0.00,,,0.00,Wunderground v.1.15,2013-06-15 07:20:00,
2013-06-15 03:27:00,62.3,56.0,29.89,NNW,330,0.0,2.0,81,0.00,,,0.00,weatherlink.com 1.10,2013-06-15 07:27:00,
2013-06-15 03:40:00,62.0,56.4,29.88,WNW,290,1.0,3.0,82,0.00,,,0.00,Wunderground v.1.15,2013-06-15 07:40:00,
2013-06-15 03:50:00,61.9,56.3,29.88,West,277,2.0,2.0,82,0.00,,,0.00,Wunderground v.1.15,2013-06-15 07:50:00,
2013-06-15 03:58:00,61.6,56.0,29.89,West,273,0.0,6.0,82,0.00,,,0.00,weatherlink.com 1.10,2013-06-15 07:58:00,
2013-06-15 04:10:00,61.3,56.1,29.89,West,273,0.0,0.0,83,0.00,,,0.00,Wunderground v.1.15,2013-06-15 08:10:00,
2013-06-15 04:20:00,61.2,56.0,29.89,West,275,0.0,0.0,83,0.00,,,0.00,Wunderground v.1.15,2013-06-15 08:20:00,
2013-06-15 04:28:00,61.0,56.0,29.90,West,275,0.0,1.0,84,0.00,,,0.00,weatherlink.com 1.10,2013-06-15 08:28:00,
2013-06-15 04:40:00,60.7,55.8,29.90,West,274,0.0,0.0,84,0.00,,,0.00,Wunderground v.1.15,2013-06-15 08:40:00,
2013-06-15 04:50:00,60.5,56.0,29.90,West,275,0.0,0.0,85,0.00,,,0.00,Wunderground v.1.15,2013-06-15 08:50:00,
2013-06-15 04:58:00,60.4,56.0,29.90,West,275,0.0,4.0,85,0.00,,,0.00,weatherlink.com 1.10,2013-06-15 08:58:00,
2013-06-15 05:10:00,60.1,55.6,29.91,West,275,0.0,0.0,85,0.00,,,0.00,Wunderground v.1.15,2013-06-15 09:10:00,
2013-06-15 05:20:00,59.7,55.5,29.91,West,274,0.0,1.0,86,0.00,,,0.00,Wunderground v.1.15,2013-06-15 09:20:00,
2013-06-15 05:28:00,59.5,56.0,29.92,West,274,0.0,1.0,87,0.00,,,0.00,weatherlink.com 1.10,2013-06-15 09:28:00,
2013-06-15 05:40:00,59.3,55.4,29.92,West,274,0.0,0.0,87,0.00,,,0.00,Wunderground v.1.15,2013-06-15 09:40:00,
2013-06-15 05:50:00,59.1,55.2,29.92,West,274,0.0,0.0,87,0.00,,,0.00,Wunderground v.1.15,2013-06-15 09:50:00,
2013-06-15 05:58:00,58.9,55.0,29.91,West,274,0.0,1.0,88,0.00,,,0.00,weatherlink.com 1.10,2013-06-15 09:58:00,
2013-06-15 06:10:00,58.7,55.2,29.92,West,274,0.0,0.0,88,0.00,,,0.00,Wunderground v.1.15,2013-06-15 10:10:00,
2013-06-15 06:20:00,58.7,55.5,29.92,West,274,0.0,0.0,89,0.00,,,0.00,Wunderground v.1.15,2013-06-15 10:20:00,
2013-06-15 06:29:00,59.0,56.0,29.92,West,274,0.0,2.0,89,0.00,,,0.00,weatherlink.com 1.10,2013-06-15 10:29:00,
2013-06-15 06:40:00,59.6,55.7,29.92,West,274,0.0,0.0,87,0.00,,,0.00,Wunderground v.1.15,2013-06-15 10:40:00,
2013-06-15 06:59:00,60.4,56.0,29.94,West,273,0.0,5.0,86,0.00,,,0.00,weatherlink.com 1.10,2013-06-15 10:59:00,
2013-06-15 07:10:00,60.7,56.5,29.94,West,272,0.0,0.0,86,0.00,,,0.00,Wunderground v.1.15,2013-06-15 11:10:00,
2013-06-15 07:20:00,60.9,56.7,29.94,West,275,0.0,0.0,86,0.00,,,0.00,Wunderground v.1.15,2013-06-15 11:20:00,
2013-06-15 07:29:00,61.3,57.0,29.94,West,273,0.0,4.0,85,0.00,,,0.00,weatherlink.com 1.10,2013-06-15 11:29:00,
2013-06-15 07:40:00,61.8,56.9,29.94,West,267,0.0,0.0,84,0.00,,,0.00,Wunderground v.1.15,2013-06-15 11:40:00,
2013-06-15 07:50:00,62.2,57.0,29.94,West,263,0.0,0.0,83,0.00,,,0.00,Wunderground v.1.15,2013-06-15 11:50:00,
2013-06-15 07:59:00,62.5,57.0,29.95,West,263,0.0,5.0,83,0.00,,,0.00,weatherlink.com 1.10,2013-06-15 11:59:00,
2013-06-15 08:10:00,63.0,57.4,29.95,WNW,283,0.0,3.0,82,0.00,,,0.00,Wunderground v.1.15,2013-06-15 12:10:00,
2013-06-15 08:15:00,63.2,58.0,29.95,West,279,0.0,4.0,82,0.00,,,0.00,weatherlink.com 1.10,2013-06-15 12:15:00,
2013-06-15 08:30:00,64.0,58.0,29.96,West,264,0.0,6.0,80,0.00,,,0.00,weatherlink.com 1.10,2013-06-15 12:30:00,
2013-06-15 08:40:00,64.5,57.5,29.97,WNW,290,1.0,1.0,78,0.00,,,0.00,Wunderground v.1.15,2013-06-15 12:40:00,
2013-06-15 08:45:00,64.8,57.0,29.98,West,276,0.0,5.0,77,0.00,,,0.00,weatherlink.com 1.10,2013-06-15 12:45:00,
2013-06-15 09:00:00,65.3,57.5,29.98,West,280,0.0,1.0,76,0.00,,,0.00,Wunderground v.1.15,2013-06-15 13:00:00,
2013-06-15 09:10:00,65.7,58.3,29.98,WSW,245,0.0,0.0,77,0.00,,,0.00,Wunderground v.1.15,2013-06-15 13:10:00,
2013-06-15 09:15:00,65.9,57.0,29.98,WNW,284,0.0,4.0,74,0.00,,,0.00,weatherlink.com 1.10,2013-06-15 13:15:00,
2013-06-15 09:30:00,67.0,57.3,29.98,WSW,237,1.0,1.0,71,0.00,,,0.00,Wunderground v.1.15,2013-06-15 13:30:00,
2013-06-15 09:40:00,67.7,57.2,29.98,West,279,0.0,0.0,69,0.00,,,0.00,Wunderground v.1.15,2013-06-15 13:40:00,
2013-06-15 09:45:00,68.1,58.0,29.98,SW,225,0.0,6.0,69,0.00,,,0.00,weatherlink.com 1.10,2013-06-15 13:45:00,
2013-06-15 10:01:00,69.3,57.0,29.97,SW,225,0.0,1.0,64,0.00,,,0.00,weatherlink.com 1.10,2013-06-15 14:01:00,
2013-06-15 10:10:00,70.3,54.3,29.97,West,279,1.0,1.0,57,0.00,,,0.00,Wunderground v.1.15,2013-06-15 14:10:00,
2013-06-15 10:15:00,70.5,54.0,29.96,West,272,1.0,7.0,56,0.00,,,0.00,weatherlink.com 1.10,2013-06-15 14:15:00,
2013-06-15 10:30:00,71.2,54.2,29.96,West,259,1.0,1.0,55,0.00,,,0.00,Wunderground v.1.15,2013-06-15 14:30:00,
2013-06-15 10:40:00,71.5,53.5,29.96,West,265,1.0,1.0,53,0.00,,,0.00,Wunderground v.1.15,2013-06-15 14:40:00,
2013-06-15 10:47:00,71.9,54.0,29.97,West,281,0.0,6.0,53,0.00,,,0.00,weatherlink.com 1.10,2013-06-15 14:47:00,
2013-06-15 11:00:00,72.4,52.7,29.97,WNW,299,0.0,0.0,50,0.00,,,0.00,Wunderground v.1.15,2013-06-15 15:00:00,
2013-06-15 11:10:00,72.7,53.5,29.97,WNW,299,2.0,4.0,51,0.00,,,0.00,Wunderground v.1.15,2013-06-15 15:10:00,
2013-06-15 11:16:00,72.9,53.0,29.97,NW,304,2.0,9.0,50,0.00,,,0.00,weatherlink.com 1.10,2013-06-15 15:16:00,
2013-06-15 11:30:00,73.3,51.3,29.97,NW,307,1.0,1.0,46,0.00,,,0.00,Wunderground v.1.15,2013-06-15 15:30:00,
2013-06-15 11:40:00,73.7,52.2,29.97,WNW,294,1.0,1.0,47,0.00,,,0.00,Wunderground v.1.15,2013-06-15 15:40:00,
2013-06-15 11:46:00,74.2,54.0,29.97,West,277,0.0,8.0,49,0.00,,,0.00,weatherlink.com 1.10,2013-06-15 15:46:00,
2013-06-15 12:00:00,74.8,53.2,29.96,WNW,298,1.0,1.0,47,0.00,,,0.00,Wunderground v.1.15,2013-06-15 16:00:00,
2013-06-15 12:10:00,75.3,53.7,29.96,West,277,0.0,0.0,47,0.00,,,0.00,Wunderground v.1.15,2013-06-15 16:10:00,
2013-06-15 12:17:00,75.6,53.0,29.96,NW,319,0.0,6.0,45,0.00,,,0.00,weatherlink.com 1.10,2013-06-15 16:17:00,
2013-06-15 12:30:00,75.6,52.1,29.96,NNW,333,1.0,2.0,44,0.00,,,0.00,Wunderground v.1.15,2013-06-15 16:30:00,
2013-06-15 12:40:00,75.1,54.1,29.95,NW,323,1.0,1.0,48,0.00,,,0.00,Wunderground v.1.15,2013-06-15 16:40:00,
2013-06-15 12:48:00,75.5,52.0,29.95,WNW,289,5.0,9.0,44,0.00,,,0.00,weatherlink.com 1.10,2013-06-15 16:48:00,
2013-06-15 13:00:00,75.7,51.6,29.95,WSW,253,2.0,4.0,43,0.00,,,0.00,Wunderground v.1.15,2013-06-15 17:00:00,
2013-06-15 13:10:00,75.8,51.7,29.95,NNW,348,2.0,2.0,43,0.00,,,0.00,Wunderground v.1.15,2013-06-15 17:10:00,
2013-06-15 13:18:00,75.4,52.0,29.95,NNW,338,1.0,4.0,44,0.00,,,0.00,weatherlink.com 1.10,2013-06-15 17:18:00,
2013-06-15 13:30:00,75.6,52.8,29.95,NW,315,2.0,2.0,45,0.00,,,0.00,Wunderground v.1.15,2013-06-15 17:30:00,
2013-06-15 13:40:00,76.0,53.1,29.96,West,263,1.0,2.0,45,0.00,,,0.00,Wunderground v.1.15,2013-06-15 17:40:00,
2013-06-15 13:47:00,76.4,53.0,29.95,NNW,341,3.0,12.0,45,0.00,,,0.00,weatherlink.com 1.10,2013-06-15 17:47:00,
2013-06-15 14:00:00,76.2,53.3,29.94,WNW,300,1.0,1.0,45,0.00,,,0.00,Wunderground v.1.15,2013-06-15 18:00:00,
2013-06-15 14:10:00,76.2,54.5,29.94,West,271,1.0,1.0,47,0.00,,,0.00,Wunderground v.1.15,2013-06-15 18:10:00,
2013-06-15 14:18:00,77.6,55.0,29.93,WSW,237,7.0,10.0,46,0.00,,,0.00,weatherlink.com 1.10,2013-06-15 18:18:00,
2013-06-15 14:30:00,77.8,54.1,29.93,WSW,248,1.0,3.0,44,0.00,,,0.00,Wunderground v.1.15,2013-06-15 18:30:00,
2013-06-15 14:40:00,77.9,56.6,29.92,West,265,1.0,1.0,48,0.00,,,0.00,Wunderground v.1.15,2013-06-15 18:40:00,
2013-06-15 14:48:00,77.9,54.0,29.92,NW,305,2.0,11.0,44,0.00,,,0.00,weatherlink.com 1.10,2013-06-15 18:48:00,
2013-06-15 15:00:00,78.3,55.8,29.92,NNW,344,2.0,4.0,46,0.00,,,0.00,Wunderground v.1.15,2013-06-15 19:00:00,
2013-06-15 15:10:00,78.2,55.7,29.92,WNW,285,1.0,4.0,46,0.00,,,0.00,Wunderground v.1.15,2013-06-15 19:10:00,
2013-06-15 15:18:00,78.5,57.0,29.92,West,268,0.0,8.0,47,0.00,,,0.00,weatherlink.com 1.10,2013-06-15 19:18:00,
2013-06-15 15:30:00,79.9,55.4,29.91,WSW,239,1.0,1.0,43,0.00,,,0.00,Wunderground v.1.15,2013-06-15 19:30:00,
2013-06-15 15:40:00,79.7,55.2,29.91,WSW,248,1.0,4.0,43,0.00,,,0.00,Wunderground v.1.15,2013-06-15 19:40:00,
2013-06-15 15:48:00,79.4,55.0,29.90,WNW,296,1.0,8.0,43,0.00,,,0.00,weatherlink.com 1.10,2013-06-15 19:48:00,
2013-06-15 16:00:00,78.5,53.5,29.90,WNW,303,1.0,1.0,42,0.00,,,0.00,Wunderground v.1.15,2013-06-15 20:00:00,
2013-06-15 16:10:00,78.5,54.8,29.90,West,265,1.0,1.0,44,0.00,,,0.00,Wunderground v.1.15,2013-06-15 20:10:00,
2013-06-15 16:19:00,78.9,54.0,29.90,West,275,0.0,8.0,42,0.00,,,0.00,weatherlink.com 1.10,2013-06-15 20:19:00,
2013-06-15 16:30:00,79.6,53.1,29.90,West,271,1.0,1.0,40,0.00,,,0.00,Wunderground v.1.15,2013-06-15 20:30:00,
2013-06-15 16:40:00,79.3,52.2,29.90,West,267,1.0,4.0,39,0.00,,,0.00,Wunderground v.1.15,2013-06-15 20:40:00,
2013-06-15 16:49:00,79.4,54.0,29.91,South,182,0.0,5.0,41,0.00,,,0.00,weatherlink.com 1.10,2013-06-15 20:49:00,
2013-06-15 17:00:00,79.2,52.8,29.91,West,275,1.0,1.0,40,0.00,,,0.00,Wunderground v.1.15,2013-06-15 21:00:00,
2013-06-15 17:10:00,79.4,55.0,29.91,West,271,0.0,0.0,43,0.00,,,0.00,Wunderground v.1.15,2013-06-15 21:10:00,
2013-06-15 17:20:00,79.6,54.0,29.91,West,271,0.0,3.0,42,0.00,,,0.00,weatherlink.com 1.10,2013-06-15 21:20:00,
2013-06-15 17:30:00,79.4,53.6,29.91,West,271,0.0,0.0,41,0.00,,,0.00,Wunderground v.1.15,2013-06-15 21:30:00,
2013-06-15 17:40:00,79.3,54.2,29.91,West,269,0.0,0.0,42,0.00,,,0.00,Wunderground v.1.15,2013-06-15 21:40:00,
2013-06-15 17:48:00,79.4,54.0,29.91,SW,229,1.0,5.0,42,0.00,,,0.00,weatherlink.com 1.10,2013-06-15 21:48:00,
2013-06-15 18:00:00,79.3,54.2,29.91,WNW,290,1.0,1.0,42,0.00,,,0.00,Wunderground v.1.15,2013-06-15 22:00:00,
2013-06-15 18:10:00,79.2,54.1,29.91,WSW,258,1.0,1.0,42,0.00,,,0.00,Wunderground v.1.15,2013-06-15 22:10:00,
2013-06-15 18:20:00,78.9,54.0,29.91,West,263,0.0,6.0,43,0.00,,,0.00,weatherlink.com 1.10,2013-06-15 22:20:00,
2013-06-15 18:30:00,79.1,55.9,29.91,West,263,0.0,0.0,45,0.00,,,0.00,Wunderground v.1.15,2013-06-15 22:30:00,
2013-06-15 18:35:00,78.9,54.0,29.91,WSW,250,0.0,3.0,43,0.00,,,0.00,weatherlink.com 1.10,2013-06-15 22:35:00,
2013-06-15 18:49:00,78.7,56.0,29.91,West,276,1.0,4.0,45,0.00,,,0.00,weatherlink.com 1.10,2013-06-15 22:49:00,
2013-06-15 19:00:00,78.7,53.7,29.90,SW,222,0.0,1.0,42,0.00,,,0.00,Wunderground v.1.15,2013-06-15 23:00:00,
2013-06-15 19:10:00,78.4,54.0,29.90,SW,229,0.0,0.0,43,0.00,,,0.00,Wunderground v.1.15,2013-06-15 23:10:00,
2013-06-15 19:20:00,78.2,54.5,29.91,West,259,0.0,0.0,44,0.00,,,0.00,Wunderground v.1.15,2013-06-15 23:20:00,
2013-06-15 19:30:00,77.7,55.3,29.90,WSW,257,0.0,0.0,46,0.00,,,0.00,Wunderground v.1.15,2013-06-15 23:30:00,
2013-06-15 19:40:00,76.6,54.9,29.91,WSW,257,0.0,0.0,47,0.00,,,0.00,Wunderground v.1.15,2013-06-15 23:40:00,
2013-06-15 19:50:00,75.4,54.9,29.91,WSW,257,0.0,0.0,49,0.00,,,0.00,Wunderground v.1.15,2013-06-15 23:50:00,
2013-06-15 20:00:00,74.4,55.1,29.92,WSW,257,0.0,0.0,51,0.00,,,0.00,Wunderground v.1.15,2013-06-16 00:00:00,
2013-06-15 20:10:00,73.5,55.8,29.92,WSW,257,0.0,0.0,54,0.00,,,0.00,Wunderground v.1.15,2013-06-16 00:10:00,
2013-06-15 20:20:00,72.5,54.9,29.92,WSW,257,0.0,0.0,54,0.00,,,0.00,Wunderground v.1.15,2013-06-16 00:20:00,
2013-06-15 20:30:00,71.5,56.4,29.92,WSW,257,0.0,0.0,59,0.00,,,0.00,Wunderground v.1.15,2013-06-16 00:30:00,
2013-06-15 20:35:00,70.8,56.0,29.92,WSW,257,0.0,0.0,60,0.00,,,0.00,weatherlink.com 1.10,2013-06-16 00:35:00,
2013-06-15 20:50:00,69.0,55.4,29.92,WSW,257,0.0,0.0,62,0.00,,,0.00,Wunderground v.1.15,2013-06-16 00:50:00,
2013-06-15 21:00:00,68.0,55.4,29.92,WSW,257,0.0,0.0,64,0.00,,,0.00,Wunderground v.1.15,2013-06-16 01:00:00,
2013-06-15 21:06:00,67.4,56.0,29.93,WSW,257,0.0,0.0,66,0.00,,,0.00,weatherlink.com 1.10,2013-06-16 01:06:00,
2013-06-15 21:20:00,66.5,55.6,29.93,WSW,257,0.0,0.0,68,0.00,,,0.00,Wunderground v.1.15,2013-06-16 01:20:00,
2013-06-15 21:30:00,65.8,55.3,29.93,WSW,257,0.0,0.0,69,0.00,,,0.00,Wunderground v.1.15,2013-06-16 01:30:00,
2013-06-15 21:36:00,65.4,55.0,29.94,WSW,257,0.0,0.0,69,0.00,,,0.00,weatherlink.com 1.10,2013-06-16 01:36:00,
2013-06-15 21:50:00,64.7,54.3,29.94,WSW,257,0.0,0.0,69,0.00,,,0.00,Wunderground v.1.15,2013-06-16 01:50:00,
2013-06-15 22:00:00,64.5,54.1,29.94,WSW,257,0.0,0.0,69,0.00,,,0.00,Wunderground v.1.15,2013-06-16 02:00:00,
2013-06-15 22:10:00,64.5,54.1,29.95,WSW,257,0.0,0.0,69,0.00,,,0.00,Wunderground v.1.15,2013-06-16 02:10:00,
2013-06-15 22:20:00,64.6,54.2,29.95,WSW,257,0.0,0.0,69,0.00,,,0.00,Wunderground v.1.15,2013-06-16 02:20:00,
2013-06-15 22:30:00,64.7,54.3,29.95,WSW,257,0.0,0.0,69,0.00,,,0.00,Wunderground v.1.15,2013-06-16 02:30:00,
2013-06-15 22:37:00,64.9,54.0,29.95,WSW,257,0.0,1.0,69,0.00,,,0.00,weatherlink.com 1.10,2013-06-16 02:37:00,
2013-06-15 22:50:00,63.8,55.0,29.95,WSW,257,0.0,0.0,73,0.00,,,0.00,Wunderground v.1.15,2013-06-16 02:50:00,
2013-06-15 23:00:00,63.3,53.3,29.95,WSW,257,0.0,0.0,70,0.00,,,0.00,Wunderground v.1.15,2013-06-16 03:00:00,
2013-06-15 23:07:00,63.5,54.0,29.95,WSW,257,0.0,1.0,70,0.00,,,0.00,weatherlink.com 1.10,2013-06-16 03:07:00,
2013-06-15 23:20:00,63.5,53.1,29.95,WSW,257,0.0,0.0,69,0.00,,,0.00,Wunderground v.1.15,2013-06-16 03:20:00,
2013-06-15 23:30:00,63.3,53.3,29.95,WSW,257,0.0,0.0,70,0.00,,,0.00,Wunderground v.1.15,2013-06-16 03:30:00,
2013-06-15 23:36:00,63.3,53.0,29.96,WSW,257,0.0,1.0,69,0.00,,,0.00,weatherlink.com 1.10,2013-06-16 03:36:00,
2013-06-15 23:50:00,64.1,52.1,29.95,WSW,257,0.0,0.0,65,0.00,,,0.00,Wunderground v.1.15,2013-06-16 03:50:00,